Dewpoint
59 60 59 58 59 60 59 59 60 60 60 61 61 61 61 60 61 62 62 61 60 61
60 60 60 59 60 60 60 61 61 61 61 61 61 61 61 62 62 62 62 60 60 61
60 60 61 61 61 59 60 60 61 62 61 61 61 62 62 62 61 61 61 61 61 61
59 60 61 61 59 60 59 61 61 62 62 61 62 62 61 62 60 60 60 60 60 60
59 60 61 62 60 60 60 61 61 62 62 62 61 61 61 61 61 60 59 60 59 60
58 60 60 61 59 61 60 60 61 61 61 62 62 61 61 61 60 60 60 59 60 60
57 58 59 60 61 61 61 60 60 61 61 62 62 62 62 62 61 61 60 60 60 60
57 57 58 60 60 61 61 61 60 60 62 63 63 63 62 62 62 61 61 61 61 61
54 58 58 57 59 59 59 60 57 56 56 58 59 54 56 61 62 61 61 60 61 60
53 58 56 55 55 55 58 56 56 55 53 54 53 51 53 57 62 62 61 59 59 59
52 56 55 55 54 55 57 55 54 53 50 45 43 48 51 53 61 60 59 58 57 56
49 53 55 55 54 56 55 56 54 51 48 45 40 45 50 57 58 57 57 56 54 56
49 51 53 56 56 57 56 56 55 53 48 46 40 38 44 53 56 54 50 47 51 49
49 51 53 58 58 57 58 56 55 54 52 48 41 37 37 42 53 51 50 47 44 47
Lifted_Index
0 1 1 1 0 -0 -0 -1 -1 -1 -2 -2 -2 -2 -2 -1 -2 -2 -2 -2 -1 -1
0 0 0 0 0 -0 -1 -1 -1 -2 -2 -2 -2 -2 -2 -2 -2 -2 -2 -1 -1 -1
0 -0 -0 -0 0 -0 -1 -1 -2 -2 -2 -2 -2 -2 -2 -1 -1 -1 -1 -1 -1 -1
-0 -0 -0 -0 0 0 -1 -1 -1 -2 -2 -2 -2 -2 -1 -1 -1 -0 -0 -0 -1 -1
-0 -0 -0 -0 0 0 -1 -1 -1 -1 -2 -1 -1 -1 -1 -0 -0 0 0 0 -0 -0
0 -0 -0 -0 0 -0 -0 -1 -1 -1 -1 -1 -1 -1 -1 -0 0 1 1 1 0 0
1 1 0 -0 -0 -0 -0 -0 -1 -1 -1 -1 -1 -1 -1 -0 0 1 1 1 0 0
1 1 0 -0 -0 -0 -0 -0 -0 -1 -1 -1 -1 -1 -0 -0 0 1 1 1 1 1
1 1 1 1 0 0 0 1 1 0 -1 -1 -1 -1 -0 0 0 1 1 1 1 1
1 1 1 1 1 1 1 2 2 1 -0 -1 -1 -1 -0 0 0 1 1 1 1 1
2 1 1 2 2 1 2 3 3 2 1 0 -1 -1 -0 0 0 0 0 1 1 1
3 2 2 2 2 2 2 3 3 3 2 1 0 0 0 0 0 0 1 1 1 1
3 3 2 2 2 2 2 2 3 4 4 3 2 1 1 1 1 1 2 2 2 2
3 3 2 2 2 2 1 2 3 4 4 4 2 2 2 2 2 2 3 3 3 2